Weather in Prosvet

Russia / Samara Oblast     53°00′46″N   50°29′16″E
temp.,
°C
wind,
m/s
gust,
m/s
humid.,
%
clouds,
%
prec.,
mm/h
press.,
hPa
HPBL,
m
4 march, thu
thu401:00−10w489470 0.0 1008113
04:00−12wsw479644 0.0 1008112
07:00−11sw5109528 0.0 1008181
10:00−7sw7129448 0.0 1007407
13:00−4sw91493100 0.1 1005698
16:00−1sw101695100 0.6 10021077
19:00+1wsw101796100 0.8 10011035
22:000wsw91594100 1.4 1002933
5 march, fri
fri501:00−1sw81491100 0.1 1001636
04:00−1sw81590100 0.1 1002593
07:00−1sw71297100 0.6 1001629
10:000wsw61099100 2.4 1002607
13:000wnw57100100 1.9 1003487
16:00−2n4597100 2.6 1005415
19:00−5n2396100 0.4 100835
22:00−10nnw239068 0.4 101121
6 march, sat
sat601:00−12wnw22821 0.0 101321
04:00−13wsw238323 0.0 101421
07:00−13sw239256 0.0 101521
10:00−10wsw359451 0.0 1015184
13:00−7w349394 0.0 1015236
16:00−5n239397 0.1 1014380
19:00−10n3488100 0.0 101486
22:00−13n3794100 0.0 1014148
7 march, sun
sun701:00−15nnw349571 0.0 101384
04:00−18nnw349647 0.0 101437
07:00−19nw23970 0.0 101522
10:00−16w23920 0.0 1015114
13:00−12sw46900 0.0 1015256
16:00−11sw6108730 0.0 1013410
19:00−12ssw5129430 0.0 1012312
22:00−8ssw7149265 0.1 1011576
8 march, mon
mon801:00−6ssw91690100 0.1 1007789
04:00−6sw101691100 0.7 1004903
07:00−4sw101694100 0.8 1003897
10:00−6w3981100 1.5 1005454
13:00−4s368060 0.0 1006388
16:00−3ssw8139580 1.1 1003920
19:00−2sw101694100 1.3 1000976
22:00−7w9167298 1.8 1002836